Location: Lafig�re
(44.4503°N, 4.0357°E)
Time: 05:49:15
(UTC+00:00)

Cosmos 1125 Rocket - Pass Details

Date: 23 January 2021
Orbit: 757 x 780 km, 74.0° (Epoch: 06 March)

Event Time Altitude Azimuth Distance (km) Brightness Sun altitude
Exits shadow 05:45:00 - 342° (NNW) 3,116 6.4 -15.3°
Reaches altitude 10° 05:47:03 10° 345° (NNW) 2,336 5.7 -14.9°
Maximum altitude 05:52:19 63° 67° (ENE) 873 4.0 -14.0°
Drops below altitude 10° 05:57:34 10° 148° (SSE) 2,328 6.7 -13.1°
Sets 05:59:58 0° 151° (SSE) 3,252 7.4 -12.7°
